カタログに戻る

STARLINK-6280

運用中通信VLEO
NORAD 56531·PAYLOAD·🇺🇸 United States

打ち上げ May 14, 2023 から Cape Canaveral Space Force Station

Loading…

次のパス (今後24時間)

TLE

最新Source: CelesTrak SupGP

元期: Sep 14, 2026, 21:15 UTC

1 56531C 23065AE  26257.88590278  .00007875  00000+0  28526-3 0  2574
2 56531  43.0027 209.8646 0001369 263.9196 255.6982 15.27572338    19

AllMySatでSTARLINK-6280をリアルタイム追跡

Download on the App Store